Location: Berkeley
(37.8716°N, 122.2727°W)
Time: 08:49:50
(UTC-07:00)

ISS - Visible Passes

Search period start: 17 July 2018 00:00
Search period end: 27 July 2018 00:00
Orbit: 402 x 408 km, 51.6° (Epoch: 18 July)

Date Brightness Start Highest point End Pass type
(mag) Time Alt. Az. Time Alt. Az. Time Alt. Az.
17 Jul -1.5 05:10:52 10° NNW 05:13:48 28° NNE 05:16:42 10° E visible
18 Jul -0.2 01:05:37 10° NNW 01:06:08 10° NNW 01:06:44 10° N visible
18 Jul -0.8 04:19:07 10° NNW 04:21:31 18° NNE 04:23:55 10° ENE visible
18 Jul -3.7 22:33:28 10° SW 22:36:44 73° NW 22:40:01 10° NE visible
19 Jul -0.5 00:11:55 10° NW 00:13:42 14° NNW 00:15:30 10° NNE visible
19 Jul -0.4 03:27:29 10° N 03:29:09 13° NNE 03:30:49 10° NE visible
19 Jul -3.3 05:02:54 10° NW 05:06:10 65° NE 05:09:26 10° ESE visible
19 Jul -3.8 21:41:29 10° SW 21:44:39 53° SE 21:47:52 10° ENE visible
19 Jul -1.0 23:18:52 10° WNW 23:21:21 20° NNW 23:23:50 10° NNE visible
20 Jul -2.0 04:10:56 10° NW 04:14:00 34° NNE 04:17:02 10° E visible
20 Jul -1.8 22:26:06 10° W 22:29:03 30° NNW 22:32:02 10° NNE visible
21 Jul -1.1 03:19:05 10° NNW 03:21:43 21° NNE 03:24:20 10° E visible
21 Jul -3.6 04:55:11 10° WNW 04:58:20 45° SW 05:01:30 10° SSE visible
21 Jul -3.1 21:33:37 10° WSW 21:36:50 56° NW 21:40:04 10° NE visible
21 Jul -0.4 23:12:28 10° NW 23:13:54 12° NNW 23:15:21 10° N visible
22 Jul -0.6 02:27:23 10° NNW 02:29:21 15° NNE 02:31:18 10° ENE visible
22 Jul -3.9 04:02:58 10° NW 04:06:15 84° NE 04:09:32 10° SE visible
22 Jul -0.7 22:19:14 10° WNW 22:21:29 17° NNW 22:23:44 10° NNE visible
23 Jul -1.4 21:26:19 10° W 21:29:07 25° NNW 21:31:55 10° NNE visible
24 Jul -0.4 22:12:59 10° NW 22:14:00 11° NNW 22:15:00 10° N visible
25 Jul -0.7 21:19:31 10° WNW 21:21:31 15° NNW 21:23:30 10° NNE visible
